MST,Max TemperatureF,Mean TemperatureF,Min TemperatureF,Max Dew PointF,MeanDew PointF,Min DewpointF,Max Humidity, Mean Humidity, Min Humidity, Max Sea Level PressureIn, Mean Sea Level PressureIn, Min Sea Level PressureIn, Max VisibilityMiles, Mean VisibilityMiles, Min VisibilityMiles, Max Wind SpeedMPH, Mean Wind SpeedMPH, Max Gust SpeedMPH,PrecipitationIn, CloudCover, Events, WindDirDegrees
2012-1-1,42,25,8,11,7,0,80,49,17,30.87,30.73,30.47,10,10,10,13,2,15,0.00,1,,95
2012-1-2,50,29,7,20,13,4,84,58,31,30.91,30.73,30.55,10,10,10,12,2,14,0.00,0,,103
2012-1-3,52,32,11,20,14,8,92,57,22,30.64,30.53,30.38,10,10,10,10,3,16,0.00,0,,269
2012-1-4,46,27,7,18,12,3,92,58,23,30.78,30.68,30.51,10,10,10,10,1,14,0.00,0,,94
2012-1-5,52,31,9,18,14,6,88,55,22,30.61,30.41,30.16,10,10,10,9,2,9,0.00,0,,249
2012-1-6,46,29,11,20,14,10,92,60,27,30.32,30.21,30.09,10,10,10,8,1,12,0.00,0,,280
2012-1-7,34,19,4,27,21,1,88,77,66,30.33,30.01,29.92,10,5,0,14,4,22,0.04,7,Fog-Snow,293
2012-1-8,32,15,-3,16,4,-6,95,71,47,30.60,30.41,30.17,10,8,0,5,1,8,0.00,1,,127
2012-1-9,38,21,3,17,8,0,92,66,40,30.70,30.55,30.31,10,10,9,7,1,7,0.00,0,,225
2012-1-10,44,23,1,22,12,-1,88,64,40,30.51,30.29,30.06,10,10,10,8,1,14,0.00,1,,265
2012-1-11,29,13,-3,25,12,-5,87,70,52,30.55,30.22,29.98,10,8,1,18,6,24,T,6,Snow,262
2012-1-12,30,11,-8,2,-4,-11,87,59,31,30.67,30.49,30.21,10,10,10,14,3,17,0.00,0,,112
2012-1-13,40,20,0,5,2,-3,87,53,19,30.55,30.45,30.25,10,10,10,14,4,17,0.00,0,,154
2012-1-14,50,31,11,12,9,6,76,49,21,30.53,30.35,30.19,10,10,10,15,4,18,0.00,1,,128
2012-1-15,49,29,8,14,7,4,83,50,16,30.21,29.98,29.72,10,10,10,28,9,36,0.00,0,,194
2012-1-16,41,22,3,26,16,1,88,61,33,30.26,29.82,29.57,10,4,0,26,12,33,0.06,7,Fog-Snow,278
2012-1-17,21,3,-15,3,-9,-19,95,70,45,30.56,30.42,30.17,10,8,2,8,1,8,0.00,0,,120
2012-1-18,38,16,-7,20,9,-8,86,63,40,30.38,30.21,30.01,10,10,10,30,10,40,0.00,4,,240
2012-1-19,49,39,28,28,25,20,72,57,42,30.04,29.89,29.78,10,10,10,9,6,12,0.00,7,,252
2012-1-20,48,35,22,28,25,19,88,63,38,30.06,29.93,29.78,10,10,10,18,5,28,T,5,Rain,270
2012-1-21,48,35,22,36,29,21,92,63,34,29.92,29.57,29.39,10,7,0,28,9,37,0.08,7,Fog-Rain-Snow,256
2012-1-22,33,23,12,30,21,8,89,69,49,30.22,29.82,29.47,10,6,0,23,10,30,0.03,5,Fog-Snow,254
2012-1-23,38,23,7,26,15,6,88,64,40,30.21,30.04,29.91,10,10,4,15,4,17,T,6,Snow,114
2012-1-24,32,18,3,27,22,2,92,76,59,30.53,30.09,29.90,10,4,0,13,5,17,0.07,7,Fog-Snow,258
2012-1-25,38,20,1,19,9,-3,92,70,47,30.67,30.54,30.29,10,10,10,14,3,18,0.00,2,,135
2012-1-26,43,27,11,31,23,9,89,69,49,30.46,30.17,29.93,10,8,0,24,4,29,0.00,5,Fog-Snow,274
2012-1-27,34,20,6,27,13,1,85,61,36,30.58,30.29,30.00,10,10,10,21,8,28,0.00,3,,277
2012-1-28,38,19,0,10,4,-4,87,60,32,30.70,30.59,30.35,10,10,10,13,4,16,0.00,1,Rain,37
2012-1-29,42,24,5,16,8,1,80,57,34,30.66,30.50,30.29,10,10,10,10,3,13,0.00,0,Rain,120
2012-1-30,45,28,10,21,14,6,84,58,31,30.28,30.15,29.98,10,10,10,13,3,16,0.00,3,,249
2012-1-31,1,1,1,,,,,,,30.47,30.15,30.06,10,10,10,12,2,,0.00,1,,267